Etusivu
METAR-TAF:

METAR-TAF

Lentoasemat :

Lake Charles, Louisiana, Yhdysvallat

Leveyspiiri: 30-13N, Pituuspiiri: 093-09W, korkeus merenpinnasta: 4 m

Tämänhetkinen sää

Tämä raportti tehtiin 14 minuuttia sitten, kello 17.50 UTC
Tuuli 6 kn idästä
Lämpötila 32°C
Kosteus 52%
Ilmanpaine 1018 hPa
Näkyvyys: 16.1 km
Hajanaisia pilviä 4400 ft:n korkeudessa

METAR: KCWF 071750Z COR 10006KT 10SM SCT044 32/21 A3007

Aika: 13:04 (18:04 UTC)


TAF: puuttuu

Säähavainnot ja -ennusteet yli 4000 lentoasemalta (METAR- ja TAF-raportit).

Käytössä olevat sääasemat on merkitty karttaan keltaisilla ja punaisilla pisteillä.

Aseta hiiri pisteen päälle nähdäksesi sääaseman nimen.

Klikkaa sitten nähdäksesi säähavainnot ja -ennusteet.

Kartan vaihtaminen: klikkaa mustalla rastilla varustettuja vihreitä pisteitä, niin voit zoomata sisään; viivalla varustettua vihreää pistettä, niin voit zoomata ulos tai vihreitä nuolia, niin pääset viereisille kartoille.


METAR-TAF: